Terminal Aerodrome Forecast
Issued by NWS Denver/Boulder, CO

Home | Current Version | Previous Version | Text Only | Print | Product List | Glossary On
Versions: 1 2 3 4 5 6 7 8 9 10 11 12 13 14 15 16 17 18 19 20 21 22 23 24 25 26 27 28 29 30 31 32 33 34 35 36 37 38 39 40 41 42 43 44 45 46 47 48 49 50
000
FTUS45 KBOU 310813 AAB
TAFDEN
TAF AMD
KDEN 310813Z 3108/0112 21012KT P6SM BKN220
     FM311500 VRB05KT P6SM FEW120 SCT200
     FM311900 14012KT P6SM SCT080 SCT120
     FM010200 16012G20KT P6SM SCT080 BKN120
     FM010400 20011KT P6SM FEW090 SCT120=

USA.gov is the U.S. government's official web portal to all federal, state and local government web resources and services.